TimeAKDT,TemperatureF,Dew PointF,Humidity,Sea Level PressureIn,VisibilityMPH,Wind Direction,Wind SpeedMPH,Gust SpeedMPH,PrecipitationIn,Events,Conditions,WindDirDegrees,DateUTC
12:01 AM,30.0,28.0,92,30.49,6.0,WNW,15.0,-,0.00,Snow,Light Snow,290,2012-10-09 08:01:00
12:10 AM,30.2,28.4,93,30.50,1.8,WNW,23.0,27.6,0.00,Snow,Light Snow,290,2012-10-09 08:10:00
12:20 AM,30.2,28.4,93,30.50,1.5,West,21.9,-,0.00,Snow,Light Snow,280,2012-10-09 08:20:00
12:25 AM,30.2,28.4,93,30.50,1.0,West,23.0,-,0.00,Snow,Light Snow,280,2012-10-09 08:25:00
12:32 AM,30.2,28.4,93,30.50,1.0,West,24.2,-,0.00,Snow,Light Snow,280,2012-10-09 08:32:00
12:39 AM,30.2,28.4,93,30.51,1.5,West,27.6,31.1,0.00,Snow,Light Snow,280,2012-10-09 08:39:00
12:46 AM,30.2,28.4,93,30.51,3.0,West,29.9,33.4,0.00,Snow,Light Snow,280,2012-10-09 08:46:00
12:58 AM,30.2,28.4,93,30.51,6.0,West,25.3,-,0.00,Snow,Light Snow,270,2012-10-09 08:58:00
1:01 AM,30.0,28.0,92,30.51,6.0,West,26.5,-,0.00,Snow,Light Snow,270,2012-10-09 09:01:00
1:28 AM,30.2,28.4,93,30.52,2.5,West,26.5,-,0.00,Snow,Light Snow,270,2012-10-09 09:28:00
1:38 AM,30.2,28.4,93,30.52,3.0,West,27.6,-,0.00,Snow,Light Snow,280,2012-10-09 09:38:00
1:46 AM,30.2,28.4,93,30.53,4.0,West,29.9,33.4,0.00,Snow,Light Snow,280,2012-10-09 09:46:00
1:58 AM,30.2,28.4,93,30.53,1.8,West,29.9,-,0.00,Snow,Light Snow,280,2012-10-09 09:58:00
2:01 AM,30.2,28.4,93,30.52,1.0,West,25.3,-,0.00,Snow,Light Snow,270,2012-10-09 10:01:00
2:09 AM,30.2,28.4,93,30.53,0.8,WNW,28.8,32.2,0.00,Snow,Light Snow,290,2012-10-09 10:09:00
2:21 AM,30.2,30.2,100,30.53,4.0,West,28.8,-,0.00,Snow,Light Snow,280,2012-10-09 10:21:00
2:33 AM,30.2,28.4,93,30.53,8.0,West,29.9,34.5,0.00,Snow,Light Snow,280,2012-10-09 10:33:00
2:59 AM,30.2,26.6,86,30.53,4.0,West,27.6,32.2,0.00,,Mostly Cloudy,270,2012-10-09 10:59:00
3:01 AM,30.0,27.0,88,30.53,4.0,West,27.6,32.2,0.00,,Mostly Cloudy,270,2012-10-09 11:01:00
3:28 AM,30.2,26.6,86,30.53,4.0,West,32.2,38.0,0.00,,Mostly Cloudy,270,2012-10-09 11:28:00
4:01 AM,30.0,27.0,88,30.53,2.5,West,29.9,38.0,0.00,,Overcast,270,2012-10-09 12:01:00
4:16 AM,30.2,28.4,93,30.52,3.0,West,31.1,38.0,0.00,,Overcast,270,2012-10-09 12:16:00
4:27 AM,30.2,28.4,93,30.53,2.0,West,34.5,39.1,0.00,,Overcast,270,2012-10-09 12:27:00
4:35 AM,30.2,28.4,93,30.53,1.8,West,32.2,39.1,0.00,,Overcast,270,2012-10-09 12:35:00
4:50 AM,30.2,28.4,93,30.52,1.8,West,31.1,40.3,0.00,,Overcast,270,2012-10-09 12:50:00
4:59 AM,30.2,28.4,93,30.53,2.0,West,36.8,42.6,0.00,,Overcast,270,2012-10-09 12:59:00
5:01 AM,30.0,28.0,92,30.53,2.5,West,34.5,42.6,0.00,,Overcast,270,2012-10-09 13:01:00
5:13 AM,30.2,28.4,93,30.53,3.0,West,33.4,39.1,0.00,,Overcast,260,2012-10-09 13:13:00
5:22 AM,30.2,26.6,86,30.53,2.5,West,38.0,-,0.00,,Overcast,270,2012-10-09 13:22:00
5:37 AM,30.2,26.6,86,30.52,5.0,West,29.9,41.4,0.00,,Overcast,270,2012-10-09 13:37:00
6:01 AM,30.0,27.0,88,30.53,3.0,West,38.0,41.4,0.00,,Overcast,270,2012-10-09 14:01:00
6:08 AM,30.2,26.6,86,30.53,2.5,West,36.8,43.7,0.00,,Overcast,260,2012-10-09 14:08:00
6:16 AM,30.2,26.6,86,30.53,5.0,West,35.7,43.7,0.00,Snow,Light Snow,270,2012-10-09 14:16:00
6:36 AM,30.2,26.6,86,30.54,2.5,West,39.1,43.7,0.00,,Overcast,260,2012-10-09 14:36:00
6:44 AM,30.2,26.6,86,30.54,2.0,West,40.3,46.0,0.00,,Overcast,270,2012-10-09 14:44:00
7:01 AM,30.2,26.6,86,30.53,3.0,West,36.8,46.0,0.00,,Overcast,260,2012-10-09 15:01:00
7:35 AM,30.2,26.6,86,30.54,2.0,West,38.0,49.5,0.00,,Overcast,270,2012-10-09 15:35:00
7:44 AM,28.4,26.6,93,30.54,4.0,West,38.0,44.9,0.00,Snow,Light Snow,260,2012-10-09 15:44:00
7:56 AM,28.4,26.6,93,30.55,1.8,West,40.3,47.2,0.00,Snow,Light Snow,260,2012-10-09 15:56:00
7:57 AM,28.9,26.1,89,30.55,1.8,West,39.1,47.2,0.00,Snow,Light Snow,260,2012-10-09 15:57:00
8:03 AM,28.4,26.6,93,30.55,0.8,West,39.1,47.2,0.00,Snow,Light Snow,270,2012-10-09 16:03:00
8:13 AM,28.4,26.6,93,30.55,0.5,West,39.1,44.9,0.00,Fog-Snow,Snow,270,2012-10-09 16:13:00
8:28 AM,28.4,26.6,93,30.55,0.5,West,38.0,46.0,0.00,Fog-Snow,Snow,260,2012-10-09 16:28:00
8:33 AM,28.4,26.6,93,30.56,0.5,West,39.1,44.9,0.00,Fog-Snow,Snow,270,2012-10-09 16:33:00
8:45 AM,28.4,26.6,93,30.56,0.5,West,39.1,48.3,0.00,Fog-Snow,Snow,270,2012-10-09 16:45:00
8:58 AM,28.4,26.6,93,30.55,0.5,West,40.3,46.0,0.00,Fog-Snow,Snow,270,2012-10-09 16:58:00
9:01 AM,28.0,28.0,100,30.56,0.5,West,39.1,47.2,0.00,Fog-Snow,Snow,270,2012-10-09 17:01:00
9:26 AM,28.4,28.4,100,30.57,1.0,West,38.0,46.0,0.00,Snow,Light Snow,270,2012-10-09 17:26:00
9:34 AM,28.4,28.4,100,30.56,1.5,West,36.8,42.6,0.00,Snow,Light Snow,260,2012-10-09 17:34:00
9:45 AM,28.4,28.4,100,30.57,3.0,West,40.3,44.9,0.00,,Overcast,270,2012-10-09 17:45:00
9:53 AM,28.4,28.4,100,30.57,1.8,West,36.8,44.9,0.00,,Overcast,270,2012-10-09 17:53:00
10:01 AM,28.9,28.0,96,30.57,1.2,West,38.0,46.0,0.00,,Overcast,270,2012-10-09 18:01:00
10:11 AM,30.2,28.4,93,30.57,3.0,West,36.8,43.7,0.00,,Overcast,270,2012-10-09 18:11:00
10:21 AM,30.2,28.4,93,30.57,1.8,West,34.5,42.6,0.00,,Overcast,270,2012-10-09 18:21:00
11:01 AM,30.0,28.9,96,30.57,1.2,West,34.5,42.6,0.00,Snow,Light Snow,270,2012-10-09 19:01:00
11:28 AM,30.2,30.2,100,30.58,2.0,West,36.8,46.0,0.00,,Overcast,270,2012-10-09 19:28:00
11:37 AM,30.2,30.2,100,30.59,5.0,West,34.5,-,0.00,,Overcast,270,2012-10-09 19:37:00
11:56 AM,30.2,28.4,93,30.58,2.5,West,31.1,40.3,0.00,,Overcast,270,2012-10-09 19:56:00
12:01 PM,30.2,28.4,93,30.58,8.0,West,34.5,42.6,0.00,,Overcast,270,2012-10-09 20:01:00
12:23 PM,30.2,28.4,93,30.60,1.5,West,41.4,46.0,0.00,,Overcast,270,2012-10-09 20:23:00
12:37 PM,30.2,28.4,93,30.59,3.0,West,39.1,46.0,0.00,,Overcast,270,2012-10-09 20:37:00
1:01 PM,30.0,28.9,96,30.59,6.0,West,36.8,44.9,0.00,Snow,Light Snow,270,2012-10-09 21:01:00
2:01 PM,30.0,28.9,96,30.59,9.0,West,34.5,42.6,0.00,,Overcast,270,2012-10-09 22:01:00
3:01 PM,30.9,28.9,92,30.60,6.0,West,39.1,44.9,N/A,,Mostly Cloudy,270,2012-10-09 23:01:00
4:01 PM,30.9,28.9,92,30.61,6.0,West,35.7,43.7,0.00,Snow,Light Snow,270,2012-10-10 00:01:00
4:17 PM,30.2,28.4,93,30.61,8.0,West,35.7,41.4,0.00,,Overcast,270,2012-10-10 00:17:00
5:01 PM,30.9,28.0,89,30.61,6.0,West,35.7,44.9,0.00,,Overcast,270,2012-10-10 01:01:00
5:40 PM,30.2,28.4,93,30.60,8.0,West,33.4,43.7,N/A,,Overcast,270,2012-10-10 01:40:00
6:01 PM,30.9,28.9,92,30.61,7.0,West,35.7,42.6,0.00,Snow,Light Snow,270,2012-10-10 02:01:00
6:42 PM,30.2,28.4,93,30.62,10.0,West,35.7,43.7,0.00,Snow,Light Snow,270,2012-10-10 02:42:00
7:01 PM,30.0,28.9,96,30.61,9.0,West,34.5,42.6,0.00,Snow,Light Snow,260,2012-10-10 03:01:00
8:01 PM,30.0,28.9,96,30.61,9.0,West,33.4,41.4,0.00,Snow,Light Snow,270,2012-10-10 04:01:00
8:13 PM,30.2,28.4,93,30.62,10.0,West,34.5,39.1,0.00,,Overcast,270,2012-10-10 04:13:00
9:01 PM,30.0,28.9,96,30.61,10.0,West,32.2,38.0,0.00,,Overcast,270,2012-10-10 05:01:00
10:01 PM,30.0,30.0,100,30.61,9.0,West,28.8,36.8,0.00,,Overcast,270,2012-10-10 06:01:00
11:01 PM,30.0,30.0,100,30.61,9.0,West,32.2,39.1,0.00,,Overcast,270,2012-10-10 07:01:00